This demonstration page uses our WeatherBlox Daily Observations layout. Learn more.

Left ArrowRight Arrow

Hourly Observations for May 29, 2018

Temp ( °F °C ) Dew Point ( °F °C ) Humidity (%) Winds ( mph kmh ) Pressure ( in mb ) Visibility ( mi km ) Precip ( " mm )
12:15 am 00:15 Cloudy with Light Rain 61 16 59 15.2 95 95 W 12 19 29.94 1014 10 16 0.03 0.76
12:35 am 00:35 Cloudy with Light Rain 60 15.8 60 15.3 97 97 WSW 7 11 30.00 1016 7 11 0.08 2.03
12:55 am 00:55 Cloudy with Light Rain 60 15.7 60 15.5 99 99 WSW 5 7 30.00 1016 10 16 0.09 2.29
1:15 am 01:15 Mostly Cloudy with Light Rain 60 15.7 60 15.3 97 97 WNW 8 13 29.91 1013 10 16 N/A
1:35 am 01:35 Partly Cloudy 60 15.7 60 15.4 98 98 W 7 11 29.97 1015 10 16 N/A
1:55 am 01:55 Partly Cloudy 60 15.5 59 15.2 98 98 N N/A 29.94 1014 10 16 N/A
2:15 am 02:15 Partly Cloudy 60 15.4 59 15.1 98 98 ENE 3 6 29.88 1012 10 16 N/A
2:35 am 02:35 Partly Cloudy 60 15.5 60 15.5 100 100 SSE 3 6 29.88 1012 10 16 N/A
2:55 am 02:55 Partly Cloudy 60 15.3 60 15.3 100 100 SE 9 15 29.85 1011 10 16 N/A
3:15 am 03:15 Partly Cloudy 60 15.5 60 15.5 100 100 SE 9 15 29.83 1010 10 16 N/A
3:35 am 03:35 Partly Cloudy 60 15.5 59 15.2 98 98 SE 7 11 29.80 1009 10 16 N/A
3:55 am 03:55 Partly Cloudy 60 15.8 59 15.2 96 96 SSE 5 7 29.80 1009 10 16 N/A
4:15 am 04:15 Partly Cloudy 61 16 59 15.2 95 95 SE 10 17 29.80 1009 10 16 N/A
4:35 am 04:35 Mostly Cloudy 62 16.5 59 15 91 91 SSE 13 20 29.80 1009 10 16 N/A
4:55 am 04:55 Cloudy 62 16.7 58 14.7 88 88 SW 9 15 29.83 1010 10 16 N/A
5:15 am 05:15 Partly Cloudy 62 16.5 58 14.6 89 89 SW 8 13 29.83 1010 10 16 N/A
5:35 am 05:35 Clear 61 16.3 59 14.8 91 91 SW 8 13 29.83 1010 10 16 N/A
5:55 am 05:55 Partly Cloudy 60 15.8 59 15 95 95 WSW 9 15 29.83 1010 10 16 N/A
6:15 am 06:15 Cloudy 60 15.8 59 15 95 95 WSW 14 22 29.83 1010 10 16 N/A
6:35 am 06:35 Mostly Cloudy 61 16.3 59 15 92 92 W 12 19 29.83 1010 10 16 N/A
6:55 am 06:55 Mostly Cloudy 62 16.8 58 14.7 88 88 W 18 30 29.83 1010 10 16 N/A
7:15 am 07:15 Cloudy 63 17.2 58 14.5 84 84 SW 12 19 29.85 1011 10 16 N/A
7:35 am 07:35 Cloudy with Light Rain 62 16.5 59 15 91 91 SSW 8 13 29.85 1011 10 16 N/A
7:55 am 07:55 Cloudy with Light Rain 63 17 58 14.7 86 86 SW 7 11 29.85 1011 10 16 N/A
8:15 am 08:15 Cloudy with Light Rain 63 17 58 14.5 85 85 SW 7 11 29.85 1011 10 16 N/A
8:35 am 08:35 Cloudy with Drizzle 63 17.1 58 14.4 84 84 S 5 7 29.85 1011 10 16 N/A
8:55 am 08:55 Cloudy 62 16.6 59 15 90 90 S 3 6 29.85 1011 10 16 N/A
9:15 am 09:15 Cloudy 62 16.9 60 15.4 91 91 SW 3 6 29.85 1011 10 16 N/A
9:35 am 09:35 Cloudy 63 17.2 58 14.7 85 85 N N/A 29.85 1011 10 16 N/A
9:55 am 09:55 Cloudy 64 17.9 58 14.5 81 81 N N/A 29.85 1011 10 16 N/A
10:15 am 10:15 Cloudy with Nearby Thunderstorms 65 18.4 58 14.4 78 78 N N/A 29.85 1011 10 16 N/A
10:35 am 10:35 Partly Cloudy 65 18.6 58 14.4 77 77 SSE 6 9 29.83 1010 10 16 N/A
10:55 am 10:55 Sunny 67 19.4 60 15.4 78 78 SSE 9 15 29.83 1010 10 16 N/A
11:10 am 11:10 Mostly Cloudy 67 19.3 59 15.1 77 77 SE 3 6 29.83 1010 10 16 N/A
11:35 am 11:35 Mostly Cloudy 66 19 61 16 83 83 SE 5 7 29.83 1010 10 16 N/A
11:55 am 11:55 Cloudy with Nearby Thunderstorms 67 19.5 60 15.4 77 77 SE 7 11 29.83 1010 10 16 N/A
12:15 pm 12:15 Cloudy with Nearby Thunderstorms 66 18.9 60 15.8 82 82 SE 7 11 29.83 1010 10 16 N/A
12:35 pm 12:35 Cloudy with Thunderstorms 64 18 62 16.5 91 91 N N/A 29.85 1011 10 16 0.02 0.51
12:55 pm 12:55 Mostly Cloudy with Nearby Thunderstorms 66 18.9 64 17.5 92 92 NW 7 11 29.83 1010 10 16 0.02 0.51
1:15 pm 13:15 Cloudy with Thunderstorms 65 18.4 61 16.3 88 88 N 6 9 29.80 1009 10 16 0.01 0.25
1:35 pm 13:35 Cloudy 66 18.7 62 16.7 88 88 NE 9 15 29.80 1009 10 16 0.02 0.51
1:55 pm 13:55 Cloudy with Nearby Thunderstorms 66 19 62 16.8 87 87 E 9 15 29.77 1008 10 16 0.02 0.51
2:15 pm 14:15 Cloudy with Nearby Thunderstorms 66 19 62 16.6 86 86 N 6 9 29.80 1009 10 16 N/A
2:35 pm 14:35 Cloudy with Nearby Thunderstorms 66 19 63 17.1 89 89 NNE 6 9 29.80 1009 10 16 N/A
2:55 pm 14:55 Cloudy 66 18.9 63 17.1 89 89 N 6 9 29.80 1009 10 16 N/A
3:15 pm 15:15 Cloudy 65 18.5 62 16.6 89 89 ENE 7 11 29.77 1008 10 16 N/A
3:35 pm 15:35 Cloudy with Nearby Thunderstorms 66 18.9 63 17.1 89 89 ENE 6 9 29.77 1008 10 16 N/A
3:55 pm 15:55 Cloudy 65 18.6 61 16.1 85 85 N 5 7 29.77 1008 10 16 0.01 0.25
4:15 pm 16:15 Cloudy with Nearby Thunderstorms 64 17.7 60 15.8 89 89 NE 3 6 29.74 1007 10 16 N/A
4:35 pm 16:35 Cloudy 65 18.6 59 15.2 81 81 NNW 3 6 29.74 1007 10 16 0.01 0.25
4:55 pm 16:55 Cloudy with Nearby Thunderstorms 66 19 59 15.2 79 79 N N/A 29.74 1007 10 16 0.01 0.25
5:15 pm 17:15 Cloudy with Nearby Thunderstorms 66 18.7 60 15.4 81 81 N N/A 29.74 1007 10 16 N/A
5:35 pm 17:35 Cloudy 66 18.7 60 15.6 82 82 N N/A 29.74 1007 10 16 N/A
5:55 pm 17:55 Cloudy 66 18.8 60 15.5 81 81 N N/A 29.74 1007 10 16 N/A
6:15 pm 18:15 Mostly Cloudy with Nearby Thunderstorms 68 19.8 58 14.3 71 71 E 5 7 29.71 1006 10 16 N/A
6:35 pm 18:35 Mostly Cloudy with Nearby Thunderstorms 68 20.1 60 15.4 74 74 ESE 8 13 29.71 1006 10 16 N/A
6:55 pm 18:55 Partly Cloudy 68 20 60 15.6 76 76 E 9 15 29.71 1006 10 16 N/A
7:15 pm 19:15 Sunny 69 20.4 59 14.9 71 71 ESE 12 19 29.71 1006 10 16 N/A
7:35 pm 19:35 Partly Cloudy 67 19.6 59 15.2 76 76 ENE 7 11 29.71 1006 10 16 N/A
7:55 pm 19:55 Mostly Cloudy 68 20 60 15.7 76 76 NE 8 13 29.71 1006 10 16 N/A
8:15 pm 20:15 Mostly Cloudy 67 19.3 59 15.2 77 77 NNE 6 9 29.71 1006 10 16 N/A
8:35 pm 20:35 Cloudy 66 19 60 15.7 81 81 NE 5 7 29.71 1006 10 16 N/A
8:55 pm 20:55 Mostly Cloudy 65 18.6 61 16 85 85 E 5 7 29.74 1007 10 16 N/A
9:15 pm 21:15 Cloudy 65 18.3 62 16.5 89 89 E 6 9 29.74 1007 10 16 N/A
9:35 pm 21:35 Mostly Cloudy with Nearby Thunderstorms 64 17.9 61 16.1 89 89 E 5 7 29.74 1007 10 16 N/A
9:55 pm 21:55 Mostly Cloudy 64 17.6 61 16.2 92 92 N N/A 29.71 1006 10 16 N/A
10:15 pm 22:15 Partly Cloudy 63 17.2 61 16 93 93 E 7 11 29.74 1007 10 16 N/A
10:35 pm 22:35 Mostly Cloudy 63 17.1 61 16 93 93 SE 6 9 29.74 1007 10 16 N/A
10:55 pm 22:55 Cloudy 63 17.1 61 16.2 94 94 SSE 5 7 29.74 1007 10 16 N/A
11:15 pm 23:15 Mostly Cloudy 63 17.1 60 15.7 92 92 ESE 7 11 29.74 1007 10 16 N/A
11:35 pm 23:35 Partly Cloudy 62 16.5 60 15.5 94 94 ESE 6 9 29.74 1007 10 16 N/A
11:55 pm 23:55 Clear 60 15.8 60 15.5 98 98 ESE 5 7 29.74 1007 10 16 N/A

Powered by AerisWeather